This demonstration page uses our WeatherBlox Daily Observations layout. Learn more.

41.55636, -103.73856

Hourly Observations for October 16, 2019

Temp ( °F °C ) Dew Point ( °F °C ) Humidity (%) Winds ( mph kmh ) Pressure ( in mb ) Visibility ( mi km ) Precip ( " mm )
12:58 am 00:58 Clear 46 7.6 24 -4.7 42 42 NE 7 11 30.25 1024 10 16.0934 0 0
1:58 am 01:58 Clear 45 7.2 24 -4.6 43 43 E 3 6 30.3 1026 10 16.0934 0 0
2:58 am 02:58 Clear 35 1.8 24 -4.2 65 65 S 5 7 30.32 1027 10 16.0934 0 0
3:58 am 03:58 Clear 39 4.1 25 -3.9 56 56 SE 8 13 30.29 1026 10 16.0934 0 0
4:58 am 04:58 Clear 38 3.2 26 -3.6 61 61 S 7 11 30.29 1026 10 16.0934 0 0
5:58 am 05:58 Clear 37 2.6 26 -3.4 65 65 S 10 17 30.27 1025 10 16.0934 0 0
6:58 am 06:58 Clear 36 2.2 25 -3.9 64 64 SSW 7 11 30.24 1024 10 16.0934 0 0
7:58 am 07:58 Clear 39 3.9 25 -3.7 58 58 SW 10 17 30.2 1023 10 16.0934 0 0
8:58 am 08:58 Clear 39 4 26 -3.4 59 59 SW 15 24 30.16 1021 10 16.0934 0 0
9:58 am 09:58 Clear 39 3.9 26 -3.6 58 58 SSW 26 43 30.11 1020 10 16.0934 0 0
11:58 am 11:58 Clear 43 6.3 23 -4.9 45 45 SW 12 19 30.1 1019 10 16.0934 0 0
12:58 pm 12:58 Mostly Clear 40 4.3 24 -4.6 53 53 SW 6 9 30.13 1020 10 16.0934 0 0
1:58 pm 13:58 Sunny 40 4.6 26 -3.2 57 57 WSW 7 11 30.13 1020 10 16.0934 0 0
2:58 pm 14:58 Sunny 49 9.7 25 -3.9 38 38 W 5 7 30.14 1021 10 16.0934 0 0
3:58 pm 15:58 Sunny 62 16.5 20 -6.8 20 20 WNW 15 24 30.08 1019 10 16.0934 0 0
4:58 pm 16:58 Sunny 65 18.4 15 -9.2 14 14 WNW 16 26 30.06 1018 10 16.0934 0 0
5:58 pm 17:58 Sunny 69 20.6 17 -8.1 14 14 WNW 13 20 30.04 1017 10 16.0934 0 0
6:56 pm 18:56 Sunny 72 22.4 18 -7.9 12 12 NW 28 44 30.01 1016 10 16.0934 0 0
7:58 pm 19:58 Sunny 74 23.2 19 -7.3 12 12 WNW 14 22 29.97 1015 10 16.0934 0 0
8:58 pm 20:58 Sunny 73 22.8 18 -7.7 12 12 NW 13 20 29.96 1015 10 16.0934 0 0
9:58 pm 21:58 Sunny 74 23.6 20 -6.7 13 13 NW 14 22 29.93 1014 10 16.0934 0 0
10:58 pm 22:58 Sunny 73 22.7 21 -6.1 14 14 N 3 6 29.92 1013 10 16.0934 0 0
11:58 pm 23:58 Sunny 67 19.3 22 -5.8 18 18 ESE 6 9 29.92 1013 10 16.0934 0 0

Powered by AerisWeather